TimeEDT,TemperatureF,Dew PointF,Humidity,Sea Level PressureIn,VisibilityMPH,Wind Direction,Wind SpeedMPH,Gust SpeedMPH,PrecipitationIn,Events,Conditions,WindDirDegrees,DateUTC
12:10 AM,69.8,53.6,56,30.08,10.0,Calm,Calm,-,N/A,,Clear,0,2013-09-05 04:10:00
12:30 AM,68.0,53.6,60,30.07,10.0,WNW,3.5,-,N/A,,Clear,290,2013-09-05 04:30:00
12:50 AM,68.0,55.4,64,30.07,10.0,WNW,3.5,-,N/A,,Clear,290,2013-09-05 04:50:00
1:10 AM,66.2,57.2,73,30.07,10.0,Calm,Calm,-,N/A,,Clear,0,2013-09-05 05:10:00
1:30 AM,62.6,57.2,82,30.07,10.0,WSW,3.5,-,N/A,,Clear,240,2013-09-05 05:30:00
1:50 AM,62.6,57.2,82,30.07,10.0,WSW,3.5,-,N/A,,Clear,240,2013-09-05 05:50:00
2:10 AM,62.6,57.2,82,30.06,10.0,WSW,5.8,-,N/A,,Clear,240,2013-09-05 06:10:00
2:30 AM,62.6,55.4,77,30.06,10.0,SW,3.5,-,N/A,,Clear,220,2013-09-05 06:30:00
2:50 AM,62.6,53.6,72,30.06,10.0,WSW,4.6,-,N/A,,Clear,240,2013-09-05 06:50:00
3:10 AM,60.8,55.4,82,30.05,10.0,SW,5.8,-,N/A,,Clear,230,2013-09-05 07:10:00
3:30 AM,62.6,55.4,77,30.05,10.0,WSW,6.9,-,N/A,,Clear,250,2013-09-05 07:30:00
3:50 AM,62.6,53.6,72,30.05,10.0,WSW,5.8,-,N/A,,Clear,240,2013-09-05 07:50:00
4:10 AM,62.6,53.6,72,30.05,10.0,WSW,5.8,-,N/A,,Clear,240,2013-09-05 08:10:00
4:25 AM,62.6,53.6,72,30.05,10.0,WSW,5.8,-,N/A,,Clear,240,2013-09-05 08:25:00
4:50 AM,62.6,53.6,72,30.05,10.0,SW,5.8,-,N/A,,Clear,230,2013-09-05 08:50:00
5:10 AM,60.8,53.6,77,30.05,10.0,WSW,5.8,-,N/A,,Clear,240,2013-09-05 09:10:00
5:30 AM,60.8,53.6,77,30.05,10.0,WSW,6.9,-,N/A,,Clear,250,2013-09-05 09:30:00
5:50 AM,60.8,55.4,82,30.05,10.0,WSW,6.9,-,N/A,,Clear,250,2013-09-05 09:50:00
6:10 AM,60.8,55.4,82,30.05,10.0,WSW,8.1,-,N/A,,Clear,250,2013-09-05 10:10:00
6:30 AM,60.8,55.4,82,30.05,10.0,WSW,6.9,-,N/A,,Clear,240,2013-09-05 10:30:00
6:50 AM,60.8,55.4,82,30.06,10.0,WSW,6.9,-,N/A,,Clear,250,2013-09-05 10:50:00
7:10 AM,62.6,55.4,77,30.06,10.0,WSW,5.8,-,N/A,,Clear,240,2013-09-05 11:10:00
7:30 AM,62.6,55.4,77,30.06,10.0,WSW,6.9,-,N/A,,Clear,240,2013-09-05 11:30:00
7:50 AM,62.6,57.2,82,30.06,10.0,WSW,6.9,-,N/A,,Clear,250,2013-09-05 11:50:00
8:10 AM,64.4,57.2,77,30.06,10.0,WSW,5.8,-,N/A,,Clear,250,2013-09-05 12:10:00
8:30 AM,66.2,57.2,73,30.07,10.0,WSW,5.8,-,N/A,,Clear,250,2013-09-05 12:30:00
8:50 AM,68.0,59.0,73,30.07,10.0,SW,4.6,-,N/A,,Clear,230,2013-09-05 12:50:00
9:10 AM,69.8,60.8,73,30.07,10.0,West,5.8,-,N/A,,Clear,260,2013-09-05 13:10:00
9:30 AM,69.8,59.0,68,30.07,10.0,WSW,5.8,-,N/A,,Clear,240,2013-09-05 13:30:00
9:50 AM,73.4,60.8,65,30.08,10.0,WNW,10.4,-,N/A,,Clear,290,2013-09-05 13:50:00
10:10 AM,73.4,59.0,61,30.08,10.0,WNW,10.4,16.1,N/A,,Clear,300,2013-09-05 14:10:00
10:30 AM,73.4,60.8,65,30.08,10.0,NW,10.4,-,N/A,,Clear,310,2013-09-05 14:30:00
10:50 AM,75.2,62.6,65,30.08,10.0,NNW,8.1,17.3,N/A,,Clear,330,2013-09-05 14:50:00
11:10 AM,77.0,64.4,65,30.08,10.0,WNW,10.4,-,N/A,,Clear,300,2013-09-05 15:10:00
11:30 AM,77.0,66.2,69,30.08,10.0,WNW,11.5,-,N/A,,Clear,290,2013-09-05 15:30:00
11:50 AM,77.0,60.8,57,30.08,10.0,NW,6.9,16.1,N/A,,Scattered Clouds,320,2013-09-05 15:50:00
12:10 PM,77.0,60.8,57,30.07,10.0,West,8.1,-,N/A,,Scattered Clouds,280,2013-09-05 16:10:00
12:30 PM,77.0,60.8,57,30.08,10.0,NW,9.2,18.4,N/A,,Scattered Clouds,310,2013-09-05 16:30:00
12:50 PM,77.0,60.8,57,30.08,10.0,West,8.1,-,N/A,,Mostly Cloudy,280,2013-09-05 16:50:00
1:10 PM,77.0,60.8,57,30.07,10.0,West,10.4,16.1,N/A,,Mostly Cloudy,280,2013-09-05 17:10:00
1:30 PM,77.0,64.4,65,30.07,10.0,WNW,10.4,-,N/A,,Mostly Cloudy,300,2013-09-05 17:30:00
1:50 PM,78.8,57.2,47,30.07,10.0,WNW,11.5,20.7,N/A,,Scattered Clouds,290,2013-09-05 17:50:00
2:10 PM,77.0,62.6,61,30.07,10.0,NW,6.9,-,N/A,,Scattered Clouds,310,2013-09-05 18:10:00
2:30 PM,77.0,57.2,50,30.06,10.0,WNW,9.2,-,N/A,,Mostly Cloudy,290,2013-09-05 18:30:00
2:50 PM,77.0,59.0,54,30.06,10.0,WNW,10.4,17.3,N/A,,Mostly Cloudy,300,2013-09-05 18:50:00
3:10 PM,78.8,60.8,54,30.06,10.0,WNW,10.4,19.6,N/A,,Mostly Cloudy,290,2013-09-05 19:10:00
3:30 PM,78.8,59.0,51,30.05,10.0,West,8.1,-,N/A,,Mostly Cloudy,280,2013-09-05 19:30:00
3:50 PM,77.0,60.8,57,30.05,10.0,WNW,5.8,-,N/A,,Mostly Cloudy,290,2013-09-05 19:50:00
4:10 PM,77.0,60.8,57,30.05,10.0,WSW,5.8,-,N/A,,Scattered Clouds,240,2013-09-05 20:10:00
4:30 PM,78.8,64.4,61,30.05,10.0,NW,5.8,-,N/A,,Scattered Clouds,320,2013-09-05 20:30:00
4:50 PM,78.8,53.6,42,30.05,10.0,NNW,5.8,-,N/A,,Overcast,340,2013-09-05 20:50:00
5:10 PM,80.6,51.8,37,30.05,10.0,NNW,6.9,-,N/A,,Mostly Cloudy,330,2013-09-05 21:10:00
5:30 PM,80.6,46.4,30,30.05,10.0,NNW,9.2,-,N/A,,Mostly Cloudy,340,2013-09-05 21:30:00
5:50 PM,80.6,46.4,30,30.06,10.0,NNW,8.1,-,N/A,,Mostly Cloudy,330,2013-09-05 21:50:00
6:10 PM,78.8,46.4,32,30.07,10.0,North,5.8,-,N/A,,Scattered Clouds,350,2013-09-05 22:10:00
6:30 PM,77.0,44.6,32,30.07,10.0,North,4.6,-,N/A,,Scattered Clouds,360,2013-09-05 22:30:00
6:50 PM,78.8,41.0,26,30.08,10.0,NNW,5.8,-,N/A,,Mostly Cloudy,340,2013-09-05 22:50:00
7:10 PM,75.2,39.2,27,30.08,10.0,NNW,4.6,-,N/A,,Scattered Clouds,340,2013-09-05 23:10:00
7:30 PM,73.4,39.2,29,30.09,10.0,Calm,Calm,-,N/A,,Clear,0,2013-09-05 23:30:00
7:50 PM,73.4,37.4,27,30.09,10.0,WNW,3.5,-,N/A,,Clear,300,2013-09-05 23:50:00
8:10 PM,71.6,39.2,31,30.10,10.0,Calm,Calm,-,N/A,,Clear,0,2013-09-06 00:10:00
8:30 PM,71.6,41.0,33,30.11,10.0,NW,4.6,-,N/A,,Clear,320,2013-09-06 00:30:00
8:50 PM,69.8,44.6,40,30.12,10.0,Calm,Calm,-,N/A,,Clear,0,2013-09-06 00:50:00
9:10 PM,68.0,44.6,43,30.13,10.0,Calm,Calm,-,N/A,,Clear,0,2013-09-06 01:10:00
9:30 PM,66.2,46.4,49,30.14,10.0,Calm,Calm,-,N/A,,Clear,0,2013-09-06 01:30:00
9:50 PM,66.2,44.6,46,30.15,10.0,Calm,Calm,-,N/A,,Clear,0,2013-09-06 01:50:00
10:10 PM,64.4,46.4,52,30.15,10.0,Calm,Calm,-,N/A,,Clear,0,2013-09-06 02:10:00
10:30 PM,64.4,51.8,64,30.15,10.0,Calm,Calm,-,N/A,,Clear,0,2013-09-06 02:30:00
10:50 PM,60.8,51.8,72,30.16,10.0,Calm,Calm,-,N/A,,Clear,0,2013-09-06 02:50:00
11:10 PM,60.8,48.2,63,30.16,10.0,Calm,Calm,-,N/A,,Clear,0,2013-09-06 03:10:00
11:30 PM,60.8,48.2,63,30.17,10.0,Calm,Calm,-,N/A,,Clear,0,2013-09-06 03:30:00
11:50 PM,59.0,48.2,67,30.17,10.0,Calm,Calm,-,N/A,,Clear,0,2013-09-06 03:50:00